Weather History for Pine Bluffs Muni, Pine Bluffs, WY

Change the Weather History Date:

Wednesday, August 20, 2014

  Actual Average (KCYS) Record (KCYS)
Temperature  
Mean Temperature 73 °F 67 °F  
Max Temperature 87 °F 81 °F 94 °F (2013)
Min Temperature 59 °F 54 °F 37 °F (1939)
Degree Days  
Heating Degree Days 0 1  
Month to date heating degree days 20  
Since 1 June heating degree days 176  
Since 1 July heating degree days 42  
Cooling Degree Days 8 3  
Month to date cooling degree days 88  
Year to date cooling degree days 298  
Since 1 June cooling degree days 295  
Growing Degree Days 23 (Base 50)    
Moisture  
Dew Point 50 °F    
Average Humidity 53    
Maximum Humidity 88    
Minimum Humidity 22    
Precipitation  
Precipitation 0.00 in 0.05 in 0.93 in (1982)
Month to date precipitation 1.40  
Year to date precipitation 11.90  
Snow  
Snow 0.00 in 0.00 in - ()
Month to date snowfall 0.0  
Since 1 July snowfall 0.0  
Snow Depth -    
Sea Level Pressure  
Sea Level Pressure 29.94 in    
Wind  
Wind Speed 6 mph (West)    
Max Wind Speed 23 mph    
Max Gust Speed 29 mph    
Visibility 10 miles    
Events Rain    
T = Trace of Precipitation, MM = Missing Value Source: NWS Daily Summary

Daily Weather History Graph

Daily Weather History Graph

Search for Another Location

Airport:

Trip Planner

Search our weather history database for the weather conditions in past years. The results will help you decide how hot, cold, wet, or windy it might be!

Date:

Astronomy

Aug. 20, 2014 Rise Set
Actual Time 6:11 AM MDT 7:47 PM MDT
Civil Twilight 5:41 AM MDT 8:16 PM MDT
Nautical Twilight 5:06 AM MDT 8:52 PM MDT
Astronomical Twilight 4:28 AM MDT 9:29 PM MDT
Moon 1:52 AM MDT (8/20) 4:35 PM MDT (8/20)
Length of Visible Light 14h 35m
Length of Day
13h 36m
Waning Crescent, 20% of the Moon is Illuminated
Aug 20
Waning Crescent
Aug 25
New
Sep 2
First Quarter
Sep 8
Full
Sep 15
Last Quarter

Hourly Weather History & Observations

Time (MDT) Temp. Dew Point Humidity Pressure Visibility Wind Dir Wind Speed Gust Speed Precip Events Conditions
12:15 AM 59.0 °F 51.8 °F 77% 29.93 in 10.0 mi WSW 5.8 mph - N/A   Clear
12:35 AM 59.0 °F 51.8 °F 77% 29.91 in 10.0 mi WSW 6.9 mph - N/A   Clear
12:55 AM 59.0 °F 51.8 °F 77% 29.91 in 10.0 mi WSW 5.8 mph - N/A   Clear
1:15 AM 59.0 °F 51.8 °F 77% 29.91 in 10.0 mi WSW 6.9 mph - N/A   Clear
1:35 AM 59.0 °F 53.6 °F 82% 29.90 in 10.0 mi Calm Calm - N/A   Clear
1:55 AM 60.8 °F 53.6 °F 77% 29.91 in 10.0 mi Calm Calm - N/A   Clear
2:15 AM 60.8 °F 53.6 °F 77% 29.90 in 10.0 mi West 4.6 mph - N/A   Scattered Clouds
2:35 AM 60.8 °F 53.6 °F 77% 29.91 in 10.0 mi WSW 5.8 mph - N/A Rain Light Rain
2:55 AM 60.8 °F 53.6 °F 77% 29.91 in 10.0 mi West 4.6 mph - N/A   Light Drizzle
3:15 AM 60.8 °F 55.4 °F 82% 29.91 in 10.0 mi Calm Calm - N/A   Overcast
3:35 AM 60.8 °F 53.6 °F 77% 29.90 in 10.0 mi WNW 4.6 mph - N/A   Mostly Cloudy
4:15 AM 60.8 °F 55.4 °F 82% 29.92 in 10.0 mi SW 4.6 mph - N/A   Overcast
4:35 AM 60.8 °F 53.6 °F 77% 29.92 in 10.0 mi NW 3.5 mph - N/A   Overcast
5:15 AM 59.0 °F 55.4 °F 88% 29.91 in 10.0 mi South 3.5 mph - N/A Rain Light Rain
5:35 AM 59.0 °F 55.4 °F 88% 29.91 in 10.0 mi Calm Calm - N/A   Mostly Cloudy
5:55 AM 59.0 °F 55.4 °F 88% 29.90 in 10.0 mi Calm Calm - N/A   Clear
6:15 AM 59.0 °F 53.6 °F 82% 29.91 in 10.0 mi Calm Calm - N/A   Scattered Clouds
6:35 AM 59.0 °F 53.6 °F 82% 29.91 in 10.0 mi West 3.5 mph - N/A   Mostly Cloudy
6:55 AM 59.0 °F 53.6 °F 82% 29.92 in 10.0 mi Calm Calm - N/A   Mostly Cloudy
7:15 AM 60.8 °F 55.4 °F 82% 29.92 in 10.0 mi Calm Calm - N/A   Scattered Clouds
7:35 AM 60.8 °F 55.4 °F 82% 29.93 in 10.0 mi Calm Calm - N/A   Scattered Clouds
7:55 AM 62.6 °F 55.4 °F 77% 29.92 in 10.0 mi Calm Calm - N/A   Scattered Clouds
8:15 AM 62.6 °F 55.4 °F 77% 29.93 in 10.0 mi Calm Calm - N/A   Mostly Cloudy
8:35 AM 68.0 °F 55.4 °F 64% 29.93 in 10.0 mi Calm Calm - N/A   Scattered Clouds
8:55 AM 71.6 °F 53.6 °F 53% 29.93 in 10.0 mi WNW 5.8 mph - N/A   Clear
9:15 AM 75.2 °F 51.8 °F 44% 29.93 in 10.0 mi WNW 10.4 mph - N/A   Clear
9:35 AM 78.8 °F 48.2 °F 34% 29.93 in 10.0 mi West 11.5 mph - N/A   Clear
9:55 AM 78.8 °F 48.2 °F 34% 29.94 in 10.0 mi West 9.2 mph 16.1 mph N/A   Clear
10:15 AM 78.8 °F 48.2 °F 34% 29.93 in 10.0 mi West 4.6 mph - N/A   Clear
10:35 AM 80.6 °F 44.6 °F 28% 29.94 in 10.0 mi West 16.1 mph - N/A   Clear
10:55 AM 80.6 °F 44.6 °F 28% 29.94 in 10.0 mi West 11.5 mph 19.6 mph N/A   Clear
11:15 AM 82.4 °F 44.6 °F 26% 29.94 in 10.0 mi West 16.1 mph 23.0 mph N/A   Clear
11:35 AM 82.4 °F 44.6 °F 26% 29.94 in 10.0 mi WNW 17.3 mph 23.0 mph N/A   Scattered Clouds
11:55 AM 84.2 °F 44.6 °F 25% 29.93 in 10.0 mi WNW 23.0 mph 27.6 mph N/A   Scattered Clouds
12:15 PM 82.4 °F 42.8 °F 25% 29.93 in 10.0 mi West 19.6 mph 27.6 mph N/A   Scattered Clouds
12:35 PM 84.2 °F 42.8 °F 23% 29.93 in 10.0 mi West 21.9 mph 28.8 mph N/A   Scattered Clouds
12:55 PM 82.4 °F 42.8 °F 25% 29.93 in 10.0 mi West 17.3 mph 26.5 mph N/A   Scattered Clouds
1:15 PM 82.4 °F 42.8 °F 25% 29.93 in 10.0 mi West 17.3 mph 26.5 mph N/A   Scattered Clouds
1:35 PM 82.4 °F 44.6 °F 26% 29.93 in 10.0 mi West 11.5 mph 24.2 mph N/A   Mostly Cloudy
1:55 PM 86.0 °F 44.6 °F 23% 29.93 in 10.0 mi West 13.8 mph 21.9 mph N/A   Mostly Cloudy
2:15 PM 86.0 °F 42.8 °F 22% 29.93 in 10.0 mi WNW 9.2 mph 19.6 mph N/A   Scattered Clouds
2:35 PM 84.2 °F 42.8 °F 23% 29.92 in 10.0 mi West 15.0 mph 21.9 mph N/A   Scattered Clouds
2:55 PM 84.2 °F 42.8 °F 23% 29.91 in 10.0 mi West 13.8 mph 19.6 mph N/A   Scattered Clouds
3:15 PM 87.8 °F 44.6 °F 22% 29.92 in 10.0 mi West 12.7 mph 19.6 mph N/A   Scattered Clouds
3:35 PM 82.4 °F 42.8 °F 25% 29.91 in 10.0 mi West 8.1 mph - N/A   Mostly Cloudy
3:55 PM 82.4 °F 42.8 °F 25% 29.91 in 10.0 mi West 8.1 mph 16.1 mph N/A   Mostly Cloudy
4:15 PM 82.4 °F 42.8 °F 25% 29.91 in 10.0 mi WSW 6.9 mph - N/A   Mostly Cloudy
4:35 PM 86.0 °F 42.8 °F 22% 29.91 in 10.0 mi North 10.4 mph 16.1 mph N/A   Mostly Cloudy
4:55 PM 80.6 °F 44.6 °F 28% 29.91 in 10.0 mi NW 12.7 mph 16.1 mph N/A   Mostly Cloudy
5:15 PM 80.6 °F 44.6 °F 28% 29.92 in 10.0 mi NW 10.4 mph 20.7 mph N/A   Scattered Clouds
5:35 PM 78.8 °F 46.4 °F 32% 29.92 in 10.0 mi WNW 11.5 mph 17.3 mph N/A Rain Light Rain
5:55 PM 78.8 °F 44.6 °F 30% 29.93 in 10.0 mi NW 15.0 mph - N/A Rain Light Rain
6:15 PM 69.8 °F 55.4 °F 60% 29.94 in 10.0 mi WNW 6.9 mph - N/A Rain Light Rain
6:35 PM 73.4 °F 53.6 °F 50% 29.94 in 10.0 mi NW 13.8 mph - N/A   Mostly Cloudy
6:55 PM 73.4 °F 48.2 °F 41% 29.95 in 10.0 mi WNW 6.9 mph - N/A   Scattered Clouds
7:15 PM 71.6 °F 50.0 °F 46% 29.95 in 10.0 mi Calm Calm - N/A   Scattered Clouds
7:35 PM 69.8 °F 48.2 °F 46% 29.96 in 10.0 mi WNW 4.6 mph - N/A   Clear
7:55 PM 68.0 °F 48.2 °F 49% 29.96 in 10.0 mi Calm Calm - N/A   Clear
8:15 PM 69.8 °F 50.0 °F 49% 29.97 in 10.0 mi Calm Calm - N/A   Mostly Cloudy
8:35 PM 68.0 °F 51.8 °F 56% 29.97 in 10.0 mi ENE 4.6 mph - N/A   Mostly Cloudy
8:55 PM 69.8 °F 48.2 °F 46% 29.97 in 10.0 mi NNE 3.5 mph - N/A   Scattered Clouds
9:15 PM 68.0 °F 51.8 °F 56% 30.00 in 10.0 mi SSW 6.9 mph - N/A   Mostly Cloudy
9:35 PM 68.0 °F 50.0 °F 52% 30.01 in 10.0 mi SSE 3.5 mph - N/A Rain Light Rain
10:15 PM 62.6 °F 53.6 °F 72% 30.01 in 10.0 mi South 4.6 mph - N/A   Scattered Clouds
10:55 PM 60.8 °F 53.6 °F 77% 30.01 in 10.0 mi Calm Calm - N/A   Scattered Clouds
11:15 PM 60.8 °F 53.6 °F 77% 30.03 in 10.0 mi WNW 8.1 mph - N/A   Scattered Clouds
11:35 PM 60.8 °F 53.6 °F 77% 30.03 in 10.0 mi Calm Calm - N/A   Mostly Cloudy
11:55 PM 60.8 °F 53.6 °F 77% 30.03 in 10.0 mi Calm Calm - N/A   Mostly Cloudy